Regional Weather Roundup
Issued by NWS

Home | Current Version | Previous Version | Text Only | Print | Product List | Glossary On
Versions: 1 2 3 4 5 6 7 8 9 10 11 12 13 14 15 16 17 18 19 20 21 22 23 24 25 26 27 28 29 30 31 32 33 34 35 36 37 38 39 40 41 42 43 44 45 46 47 48 49 50
000
ASUS43 KDMX 030207
RWRIA

WEATHER ROUNDUP FOR IOWA
NATIONAL WEATHER SERVICE DES MOINES IA
900 PM CDT TUE SEP 02 2014

NOTE: "FAIR" INDICATES FEW OR NO CLOUDS BELOW 12,000 FEET WITH NO
SIGNIFICANT WEATHER AND/OR OBSTRUCTIONS TO VISIBILITY.

* - THESE STATIONS ARE NOT NWS STATIONS...THUS NOT UNDER NWS
QUALITY CONTROL.  THEY ALSO DO NOT REPORT WEATHER SUCH
AS PRECIPITATION OR FOG.

IAZ001>003-012>014-020>022-031>034-043>046-030300-
   NORTHWEST IOWA

CITY           SKY/WX    TMP DP  RH WIND       PRES   REMARKS
CARROLL *      LGT RAIN  61  61 100 CALM      29.94R
CHEROKEE *     CLEAR     64  61  93 CALM      29.92R
DENISON *      CLEAR     64  63  94 E5        29.92R
LE MARS *      CLEAR     64  61  88 S3        29.91S
ORANGE CITY *  PTCLDY    68  61  77 CALM      29.92S
SHELDON *      PTCLDY    63  59  88 S3        29.90S
SIOUX CITY     CLEAR     67  62  84 SE6       29.91R
SPENCER        CLEAR     63  59  87 S7        29.92S
STORM LAKE *   CLEAR     64  64 100 S7        29.94R
$$

IAZ055>058-069>071-079>083-090>094-030300-
   SOUTHWEST IOWA

CITY           SKY/WX    TMP DP  RH WIND       PRES   REMARKS
ATLANTIC *     CLEAR     64  61  88 SW6       29.96R
AUDUBON *      CLEAR     64  61  88 CALM      29.97R
CLARINDA *     CLEAR     66  64  94 CALM      29.98R
COUNCIL BLFS *   N/A     68  64  88 E5        29.94R
CRESTON *      CLEAR     66  61  82 SE5       29.98R
HARLAN  *      CLEAR     63  63 100 S5        29.99R
LAMONI         CLEAR     71  60  68 CALM      29.98R
RED OAK *      CLEAR     64  61  88 CALM      29.96R
SHENANDOAH *   CLEAR     70  64  83 CALM      29.96R
$$

IAZ047>049-059>061-072>074-084-030300-
   CENTRAL IOWA

CITY           SKY/WX    TMP DP  RH WIND       PRES   REMARKS
AMES           CLEAR     63  61  93 SW5       29.95R
ANKENY *       CLEAR     64  63  94 CALM      29.95R
CHARITON *     CLEAR     68  63  83 S3        29.97R
DES MOINES     CLEAR     73  60  63 CALM      29.95R
GRINNELL*      CLEAR     66  59  77 CALM      29.97R
KNOXVILLE *    CLEAR     70  63  78 S5        29.96R
MARSHALLTOWN   CLEAR     66  61  84 S5        29.95R
PELLA *        CLEAR     68  62  79 S5        29.97R
PERRY *          N/A     64  62  95 CALM      29.94S
$$

IAZ004>006-015-016-023>025-035-036-030300-
   NORTH CENTRAL IOWA

CITY           SKY/WX    TMP DP  RH WIND       PRES   REMARKS
ALGONA *       CLEAR     64  61  88 SW7       29.93R
CLARION *      CLEAR     63  61  94 S5        29.94R
ESTHERVILLE    CLEAR     62  58  86 S3        29.91S
FORT DODGE *   CLEAR     63  59  88 CALM      29.94R
MASON CITY     CLEAR     63  60  90 CALM      29.94S
FOREST CITY *  CLEAR     61  61 100 CALM      29.92S
IOWA FALLS *     N/A     65  59  82 S6        29.95R
$$

IAZ007>011-017>019-026>030-037>042-050>054-066-030300-
   NORTHEAST IOWA

CITY           SKY/WX    TMP DP  RH WIND       PRES   REMARKS
CEDAR RAPIDS   CLEAR     62  61  96 S5        29.95R
CHARLES CITY * CLEAR     63  61  94 SW3       29.94R
CLINTON *      CLEAR     63  59  88 W3        29.97R
DECORAH *      CLEAR     64  59  82 CALM      29.92R
DUBUQUE        CLEAR     63  59  87 CALM      29.95R
MONTICELLO *   PTCLDY    64  63  94 CALM      29.95R
OELWEIN *      CLEAR     64  61  88 SW5       29.95R
WATERLOO       CLEAR     67  61  81 S3        29.93R
$$

IAZ064-065-067-068-078-030300-
   EAST CENTRAL IOWA

CITY           SKY/WX    TMP DP  RH WIND       PRES   REMARKS
DAVENPORT      CLEAR     64  60  87 NW3       29.96R
IOWA CITY      CLEAR     67  62  84 CALM      29.96R
MT. PLEASANT * CLEAR     67  60  79 CALM      29.96R
MUSCATINE *    CLEAR     68  63  83 CALM      29.95R
QUAD CITIES    CLEAR     67  62  84 CALM      29.94R
$$

IAZ062-063-075>077-085>089-095>099-030300-
   SOUTHEAST IOWA

CITY           SKY/WX    TMP DP  RH WIND       PRES   REMARKS
BURLINGTON     CLEAR     69  62  78 NW5       29.96R
FAIRFIELD *    CLEAR     64  61  88 NW3       29.97R
FORT MADISON * CLEAR     66  66 100 CALM      29.97R
KEOKUK *       CLEAR     70  64  83 N3        29.95R
OSKALOOSA *      N/A     66  63  88 CALM      29.97R
CENTERVILLE *    N/A     63  63 100 CALM      29.99R
OTTUMWA        CLEAR     64  62  93 CALM      29.96R
WASHINGTON *   CLEAR     66  63  88 W3        29.96R
$$

ABBREVIATIONS USED IN REMARKS
   TC - TEMPERATURES IN CELSIUS
  WCI - WIND CHILL INDEX
   HX - HEAT INDEX
  VSB - VISIBILITY
$$




USA.gov is the U.S. government's official web portal to all federal, state and local government web resources and services.